DW0326 Weather Reports


Display with metric or nautical units.
time (UTC)temp
F
wind
direction
speed
MPH
gust
MPH
rain 1hr
in
rain 24hr
in
rain mn
in
humidity
%
barometer
mb
20260504110633 62 164 0.0 4.0 0.00 0.00 0.00 81 1011.4
20260504100332 62 169 1.0 7.0 0.00 0.00 0.00 82 1011.5
20260504081532 62 0 0.0 0.0 0.00 0.00 0.00 80 1012.4
20260504080633 62 0 0.0 0.0 0.00 0.00 0.00 80 1012.7
20260504070332 63 0 0.0 0.0 0.00 0.00 0.00 78 1013.3
20260504050632 65 194 0.0 4.0 0.00 0.00 0.00 71 1014.2
20260504045732 65 194 0.0 5.0 0.00 0.00 0.00 71 1014.2
20260504044832 66 193 0.0 3.0 0.00 0.00 0.00 71 1014.2
20260504043932 66 0 0.0 0.0 0.00 0.00 0.00 70 1014.3
20260504043032 66 193 0.0 6.0 0.00 0.00 0.00 70 1014.3
20260504040333 67 0 0.0 0.0 0.00 0.00 0.00 68 1014.3
20260504035432 67 193 0.0 6.0 0.00 0.00 0.00 68 1014.4
20260504033632 68 193 0.0 3.0 0.00 0.00 0.00 67 1014.3
20260504032733 68 194 1.0 6.0 0.00 0.00 0.00 65 1014.3
20260504031833 69 188 2.0 7.0 0.00 0.00 0.00 64 1014.3
20260504025132 70 195 0.0 5.0 0.00 0.00 0.00 62 1014.2
20260504023332 70 190 0.0 6.0 0.00 0.00 0.00 61 1014.2
20260504020632 71 177 2.0 10.0 0.00 0.00 0.00 59 1014.0
20260504015732 71 181 3.0 8.0 0.00 0.00 0.00 58 1014.0
20260504014833 72 179 2.0 12.0 0.00 0.00 0.00 58 1013.9
20260504013933 72 183 3.0 11.0 0.00 0.00 0.00 57 1013.8
20260504013032 72 179 3.0 9.0 0.00 0.00 0.00 56 1013.8
20260504012132 72 173 3.0 10.0 0.00 0.00 0.00 55 1013.8
20260504011233 73 181 2.0 12.0 0.00 0.00 0.00 55 1013.8
20260504010332 73 176 3.0 13.0 0.00 0.00 0.00 54 1013.7
20260504005432 74 182 3.0 11.0 0.00 0.00 0.00 54 1013.8
20260504004532 74 184 3.0 10.0 0.00 0.00 0.00 53 1013.8
20260504003633 74 181 4.0 11.0 0.00 0.00 0.00 52 1013.7
20260504002732 75 170 2.0 10.0 0.00 0.00 0.00 51 1013.7